Current weather by "City, St" or "zip code"  
 

Current Conditions: Minneapolis, Minneapolis-St. Paul International Airport, MN

Overcast


32.0 F

Last Updated on Oct 23 2020, 8:53 pm CDT
Humidity: 66%
Wind Speed: NW 12.7 mph
Barometer 30.35 in
Dewpoint: 21.9 F
Visibility: 10.00 mi
Precip: --
Heat Index: NA
Wind Chill: 22 F
Current conditions at:

Minneapolis, Minneapolis-St. Paul International Airport, MN (KMSP)

Lat: 44.88306 Lon: 93.22889

Local Radar Image active severe weather and emergency alerts image image weather storm and storm spotter reports image weather observation monitoring service image
Local
Radar
Active
Alerts
Storm Reports Obs
Monitoring

Sign-up For Email & Text Message Weather Alert Notification Services



Advertise Here

Observation History for Minneapolis, Minneapolis-St. Paul International Airport, MN


Time Wind
(mph)
Vis
(mi)
Weather Precip (in) Temperature (F) Relative
Humidity
Wind
Chill
(F)
Heat
Index
(F)
Pressure
Air Dwpt altimeter
(in)
sea level
(mb)
Rmks
8:53 pm CDT NW 12.7 10.00 Overcast -- 32.0 21.9 66% 22 NA 30.35 1028.9
7:53 pm CDT NW 17.3 10.00 Overcast -- 33.0 23.0 66% 22 NA 30.35 1028.6
6:53 pm CDT NW 12.7 10.00 Overcast -- 34.0 26.1 73% 25 NA 30.34 1028.2
5:53 pm CDT NW 11.5 10.00 Overcast -- 34.0 27.0 76% 26 NA 30.32 1027.6
4:53 pm CDT NW 11.5 10.00 Overcast -- 35.0 28.9 78% 27 NA 30.31 1027.3
3:53 pm CDT N 13.8 10.00 Overcast -- 35.0 28.0 76% 26 NA 30.29 1026.7
2:53 pm CDT NW 13.8 10.00 Overcast -- 36.0 28.9 76% 27 NA 30.28 1026.4
1:53 pm CDT N 12.7 10.00 Mostly Cloudy -- 36.0 30.0 79% 28 NA 30.29 1026.5
12:53 pm CDT NW 15.0 10.00 Overcast Trace 34.0 30.9 89% 24 NA 30.30 1026.9
11:53 am CDT N 11.5 8.00 Light Snow -- 34.0 30.9 89% 26 NA 30.29 1026.6
10:53 am CDT N 12.7 3.00 Light Snow Fog/Mist 00.01 33.0 30.9 92% 24 NA 30.27 1026.0
9:53 am CDT N 12.7 2.00 Light Snow Fog/Mist 00.02 32.0 30.9 96% 22 NA 30.25 1025.4
8:53 am CDT N 15.0 1.00 Light Snow Fog/Mist 00.02 32.0 30.9 96% 22 NA 30.23 1024.7
7:53 am CDT NW 12.7 1.25 Light Snow Fog/Mist 00.01 32.0 30.9 96% 22 NA 30.21 1023.9
6:53 am CDT N 15.0 6.00 Light Snow Fog/Mist Trace 33.0 30.9 92% 23 NA 30.19 1023.3
5:53 am CDT N 13.8 10.00 Overcast Trace 34.0 30.9 89% 25 NA 30.18 1022.9
4:53 am CDT N 16.1 10.00 Overcast -- 34.0 30.9 89% 24 NA 30.16 1022.1
3:53 am CDT N 16.1 G 24.2 10.00 Overcast -- 34.0 30.9 89% 24 NA 30.17 1022.5
2:53 am CDT N 16.1 G 23.0 10.00 Overcast Trace 34.0 32.0 92% 24 NA 30.15 1021.9
1:53 am CDT N 13.8 G 23.0 6.00 Light Snow Fog/Mist Trace 34.0 32.0 92% 25 NA 30.14 1021.5
12:53 am CDT N 15.0 10.00 Overcast -- 34.0 32.0 92% 24 NA 30.12 1021.0
11:53 pm CDT N 13.8 G 23.0 8.00 Overcast -- 34.0 32.0 92% 25 NA 30.11 1020.6
10:53 pm CDT N 16.1 10.00 Overcast -- 35.0 33.1 93% 25 NA 30.09 1019.9
9:53 pm CDT N 15.0 10.00 Overcast -- 35.0 32.0 89% 25 NA 30.08 1019.6

Regional Weather Observation


Minneapolis / Blaine, MN (KANE)

Overcast
34.0 F

Buffalo, Buffalo Municipal Airport, MN (KCFE)

Overcast
29.0 F

Downtown Holman Field, MN (KSTP)

Overcast
33.0 F

Minneapolis, Minneapolis-St. Paul International Airport, MN (KMSP)

Overcast
32.0 F

Maple Lake, Maple Lake Municipal Airport, MN (KMGG)

NULL
28.0 F

Minneapolis - Flying Cloud Airport, MN (KFCM)

Overcast
31.0 F